Caldwell, NJ

2:27 PM EDT on March 29, 2017 (GMT -0400)
Essex County

Weather History for KCDW - November, 2013

Change the Weather History Date:

Friday, November 8, 2013

  Actual Average Record
Temperature  
Mean Temperature 42 °F -  
Max Temperature 48 °F 54 °F 73 °F (1975)
Min Temperature 37 °F 33 °F 22 °F (1960)
Degree Days  
Heating Degree Days 22    
Moisture  
Dew Point 25 °F    
Average Humidity 53    
Maximum Humidity 79    
Minimum Humidity 35    
Precipitation  
Precipitation 0.00 in - - ()
Sea Level Pressure  
Sea Level Pressure 30.10 in    
Wind  
Wind Speed 5 mph (WNW)    
Max Wind Speed 13 mph    
Max Gust Speed 22 mph    
Visibility 10 miles    
Events      
Averages and records for this station are not official NWS values.
T = Trace of Precipitation, MM = Missing Value Source: NWS Daily Summary

Daily Weather History Graph

Daily Weather History Graph

Search for Another Location

Airport or City:

Trip Planner

Search our weather history database for the weather conditions in past years. The results will help you decide how hot, cold, wet, or windy it might be!

Date:

Astronomy

Nov. 08, 2013 Rise Set
Actual Time 6:36 AM EST 4:44 PM EST
Civil Twilight 6:07 AM EST 5:13 PM EST
Nautical Twilight 5:34 AM EST 5:46 PM EST
Astronomical Twilight 5:02 AM EST 6:18 PM EST
Moon 11:30 AM EST (11/8) 10:03 PM EST (11/8)
Length of Visible Light 11h 06m
Length of Day
10h 08m
Waxing Crescent, 33% of the Moon is Illuminated
Nov 8
Waxing Crescent
Nov 10
First Quarter
Nov 17
Full
Nov 25
Last Quarter
Dec 2
New

Hourly Weather History & Observations

Time (EST) Temp. Windchill Dew Point Humidity Pressure Visibility Wind Dir Wind Speed Gust Speed Precip Events Conditions
12:53 AM 37.9 °F - 32.0 °F 79% 29.98 in 10.0 mi Calm Calm - N/A   Overcast
1:53 AM 39.9 °F - 32.0 °F 73% 29.99 in 10.0 mi Calm Calm - N/A   Overcast
2:53 AM 42.1 °F 39.2 °F 28.9 °F 60% 30.00 in 10.0 mi West 4.6 mph - N/A   Overcast
3:53 AM 42.1 °F 37.1 °F 30.9 °F 65% 30.00 in 10.0 mi WNW 8.1 mph 16.1 mph N/A   Overcast
4:53 AM 39.0 °F 36.8 °F 32.0 °F 76% 30.01 in 10.0 mi WNW 3.5 mph - N/A   Mostly Cloudy
5:53 AM 37.9 °F - 30.9 °F 76% 30.04 in 10.0 mi Calm Calm - N/A   Partly Cloudy
6:53 AM 37.0 °F 34.5 °F 28.9 °F 73% 30.05 in 10.0 mi West 3.5 mph - N/A   Clear
7:53 AM 39.0 °F 34.0 °F 26.1 °F 60% 30.07 in 10.0 mi Variable 6.9 mph - N/A   Clear
8:53 AM 41.0 °F 35.8 °F 26.1 °F 55% 30.08 in 10.0 mi WNW 8.1 mph - N/A   Clear
9:53 AM 44.1 °F 39.0 °F 25.0 °F 47% 30.07 in 10.0 mi NW 9.2 mph 20.7 mph N/A   Clear
10:53 AM 46.9 °F - 25.0 °F 42% 30.07 in 10.0 mi WNW 11.5 mph 19.6 mph N/A   Partly Cloudy
11:53 AM 46.0 °F 41.0 °F 25.0 °F 44% 30.06 in 10.0 mi NW 10.4 mph - N/A   Overcast
12:53 PM 46.0 °F 41.4 °F 23.0 °F 40% 30.06 in 10.0 mi NW 9.2 mph 17.3 mph N/A   Overcast
1:53 PM 46.0 °F 40.2 °F 24.1 °F 42% 30.07 in 10.0 mi NW 12.7 mph 19.6 mph 0.00 in   Overcast
2:53 PM 48.9 °F - 24.1 °F 38% 30.08 in 10.0 mi NW 8.1 mph - N/A   Overcast
3:53 PM 46.9 °F - 21.9 °F 37% 30.11 in 10.0 mi WNW 9.2 mph - N/A   Overcast
4:53 PM 46.0 °F 40.2 °F 19.9 °F 35% 30.13 in 10.0 mi NW 12.7 mph 21.9 mph N/A   Partly Cloudy
5:53 PM 45.0 °F 40.1 °F 19.9 °F 37% 30.16 in 10.0 mi NW 9.2 mph 18.4 mph N/A   Overcast
6:53 PM 44.1 °F 40.8 °F 19.0 °F 37% 30.19 in 10.0 mi WNW 5.8 mph - N/A   Clear
7:53 PM 42.1 °F 39.2 °F 21.0 °F 43% 30.21 in 10.0 mi WNW 4.6 mph - N/A   Clear
8:53 PM 39.9 °F 35.8 °F 21.9 °F 49% 30.22 in 10.0 mi WNW 5.8 mph - N/A   Clear
9:53 PM 39.0 °F - 23.0 °F 53% 30.23 in 10.0 mi Calm Calm - N/A   Clear
10:53 PM 37.9 °F 34.4 °F 23.0 °F 55% 30.25 in 10.0 mi WSW 4.6 mph - N/A   Clear
11:53 PM 39.0 °F 35.7 °F 24.1 °F 55% 30.26 in 10.0 mi West 4.6 mph - N/A   Clear